This demonstration page uses our WeatherBlox Daily Observations layout. Learn more.

Left ArrowRight Arrow

44.89941, -97.11507

Hourly Observations for September 24, 2018

Temp ( °F °C ) Dew Point ( °F °C ) Humidity (%) Winds ( mph kmh ) Pressure ( in mb ) Visibility ( mi km ) Precip ( " mm )
12:53 am 00:53 Clear 64 17.8 55 12.8 73 73 S 15 24 29.75 1007 10 16 0.00 0.00
1:53 am 01:53 Clear 65 18.3 56 13.3 73 73 S 17 28 29.74 1007 10 16 0.00 0.00
2:53 am 02:53 Clear 65 18.3 56 13.3 73 73 S 15 24 29.74 1007 10 16 0.00 0.00
3:53 am 03:53 Clear 63 17.2 56 13.3 78 78 SSW 16 26 29.74 1007 10 16 0.00 0.00
4:53 am 04:53 Clear 62 16.7 57 13.9 84 84 S 14 22 29.75 1007 10 16 0.00 0.00
5:53 am 05:53 Clear 61 16.1 57 13.9 87 87 SSW 12 19 29.77 1008 10 16 0.00 0.00
6:53 am 06:53 Mostly Cloudy with Light Rain 59 15 58 14.4 96 96 S 12 19 29.76 1008 10 16 0.00 0.03
7:38 am 07:38 Mostly Cloudy with Light Rain 57 13.9 56 13.3 96 96 W 13 20 29.80 1009 10 16 0.01 0.25
7:51 am 07:51 Cloudy 55 13 55 13 100 100 W 7 11 29.80 1009 10 16 0.01 0.25
7:53 am 07:53 Cloudy 55 12.8 55 12.8 100 100 W 8 13 29.80 1009 10 16 0.01 0.25
8:16 am 08:16 Cloudy 54 12.2 54 12.2 100 100 NW 12 19 29.80 1009 9 14 0.00 0.03
8:27 am 08:27 Cloudy 54 12.2 54 12.2 100 100 Calm 29.80 1009 10 16 0.00 0.03
8:50 am 08:50 Cloudy 54 12 54 12 100 100 NW 8 13 29.80 1009 10 16 0.00 0.03
8:53 am 08:53 Cloudy 54 12.2 54 12.2 100 100 NW 8 13 29.80 1009 10 16 0.00 0.03
9:53 am 09:53 Cloudy 54 12.2 54 12.2 100 100 NNW 9 15 29.80 1009 10 16 0.00 0.00
10:44 am 10:44 Cloudy 53 11.7 53 11.7 100 100 N 10 17 29.80 1009 9 14 0.00 0.00
10:53 am 10:53 Cloudy 53 11.7 53 11.7 100 100 N 9 15 29.82 1010 8 13 0.00 0.00
11:53 am 11:53 Cloudy with Mist and Fog 53 11.7 53 11.7 100 100 NW 13 20 29.86 1011 6 10 0.00 0.00
12:16 pm 12:16 Cloudy with Mist and Fog 52 11.1 52 11.1 100 100 NNW 13 20 29.85 1011 3 4 0.00 0.00
12:26 pm 12:26 Cloudy with Mist and Fog 52 11.1 52 11.1 100 100 NNW 10 17 29.88 1012 3 5 0.00 0.00
12:48 pm 12:48 Cloudy with Mist and Fog 52 11 52 11 100 100 WNW 13 20 29.88 1012 4 6 0.00 0.00
12:53 pm 12:53 Cloudy with Mist and Fog 52 11.1 52 11.1 100 100 NW 12 19 29.87 1012 4 6 0.00 0.00
1:04 pm 13:04 Cloudy with Mist and Fog 52 11.1 52 11.1 100 100 NNW 13 20 29.88 1012 3 4 0.00 0.00
1:16 pm 13:16 Cloudy with Mist and Fog 52 11.1 52 11.1 100 100 NNW 12 19 29.85 1011 3 5 0.00 0.00
1:28 pm 13:28 Cloudy with Mist and Fog 52 11.1 52 11.1 100 100 NW 7 11 29.88 1012 6 10 0.00 0.00
1:53 pm 13:53 Cloudy with Light Rain 52 11.1 52 11.1 100 100 NNW 15 24 29.85 1011 9 14 0.00 0.03
2:53 pm 14:53 Cloudy 51 10.6 51 10.6 100 100 N 7 11 29.86 1011 10 16 0.00 0.03
3:53 pm 15:53 Cloudy with Light Rain 52 11.1 52 11.1 100 100 SE 8 13 29.82 1010 10 16 0.03 0.76
4:53 pm 16:53 Mostly Cloudy 55 12.8 53 11.7 93 93 NNW 5 7 29.82 1010 10 16 0.00 0.03
5:53 pm 17:53 Cloudy 53 11.7 52 11.1 96 96 NW 7 11 29.87 1011 10 16 0.00 0.00
6:53 pm 18:53 Cloudy 51 10.6 51 10.6 100 100 NNW 8 13 29.90 1012 10 16 0.00 0.00
7:53 pm 19:53 Cloudy with Mist and Fog 50 10 50 10 100 100 NNW 6 9 29.92 1013 6 10 0.00 0.00
8:53 pm 20:53 Cloudy 50 10 50 10 100 100 N 12 19 29.93 1014 10 16 0.00 0.00
9:53 pm 21:53 Cloudy 50 10 49 9.4 96 96 N 8 13 29.93 1014 10 16 0.00 0.00
10:40 pm 22:40 Cloudy 49 9.4 49 9.4 100 100 N 10 17 29.94 1014 10 16 0.00 0.00
10:53 pm 22:53 Cloudy 49 9.4 49 9.4 100 100 NNW 12 19 29.95 1014 10 16 0.00 0.00
11:16 pm 23:16 Cloudy 50 10 48 8.9 93 93 NW 9 15 29.97 1015 10 16 0.00 0.00
11:25 pm 23:25 Cloudy 49 9.4 48 8.9 97 97 NNW 10 17 29.97 1015 10 16 0.00 0.00
11:53 pm 23:53 Cloudy 49 9.4 47 8.3 93 93 NNW 12 19 29.96 1015 10 16 0.00 0.00

Powered by AerisWeather